Asyut, Egypt

5:15 AM EET on February 13, 2016 (GMT +0200)
Asyut International

Weather History for HEAT - November, 2013

Change the Weather History Date:

Wednesday, November 27, 2013

  Actual Average Record
Temperature  
Mean Temperature 78 °F -  
Max Temperature 96 °F 70 °F - ()
Min Temperature 61 °F 45 °F - ()
Cooling Degree Days 14    
Growing Degree Days 28 (Base 50)    
Moisture  
Dew Point 42 °F    
Average Humidity 27    
Maximum Humidity 45    
Minimum Humidity 6    
Precipitation  
Precipitation 0.00 in 0.00 in - ()
Sea Level Pressure  
Sea Level Pressure 29.99 in    
Wind  
Wind Speed 7 mph ()    
Max Wind Speed 17 mph    
Max Gust Speed -    
Visibility 6.0 miles    
Events      
T = Trace of Precipitation, MM = Missing Value Source: Averaged Metar Reports

Daily Weather History Graph

Daily Weather History Graph

Search for Another Location

Airport or City:

Trip Planner

Search our weather history database for the weather conditions in past years. The results will help you decide how hot, cold, wet, or windy it might be!

Date:

Astronomy

Nov. 27, 2013 Rise Set
Actual Time 6:24 AM EET 5:01 PM EET
Civil Twilight 5:59 AM EET 5:27 PM EET
Nautical Twilight 5:31 AM EET 5:55 PM EET
Astronomical Twilight 5:03 AM EET 6:23 PM EET
Moon 12:38 AM EET (11/27) 1:00 PM EET (11/27)
Length of Visible Light 11h 27m
Length of Day
10h 37m
Waning Crescent, 34% of the Moon is Illuminated
Nov 27
Waning Crescent
Dec 3
New
Dec 9
First Quarter
Dec 17
Full
Dec 25
Last Quarter

Hourly Weather History & Observations

Time (EET) Temp. Dew Point Humidity Pressure Visibility Wind Dir Wind Speed Gust Speed Precip Events Conditions
12:00 AM 66.2 °F 42.8 °F 43% 29.98 in - South 4.6 mph - N/A   Clear
1:00 AM 64.4 °F 41.0 °F 42% 29.98 in - SE 5.8 mph - N/A   Clear
2:00 AM 65 °F 39 °F 27% 29.96 in 6 mi SE 10.4 mph - -  
2:00 AM 64.4 °F 39.2 °F 40% 29.95 in - SE 10.4 mph - N/A   Clear
3:00 AM 64.4 °F 39.2 °F 40% 29.95 in - SSE 11.5 mph - N/A   Clear
4:00 AM 62.6 °F 39.2 °F 42% 29.95 in - SE 9.2 mph - N/A   Clear
5:00 AM 63 °F 38 °F 29% 29.96 in 6 mi SSE 6.9 mph - -  
5:00 AM 62.6 °F 39.2 °F 42% 29.95 in - SSE 6.9 mph - N/A   Clear
6:00 AM 62.6 °F 39.2 °F 42% 29.98 in - SE 8.1 mph - N/A   Clear
7:00 AM 62.6 °F 41.0 °F 45% 29.98 in - SE 5.8 mph - N/A   Clear
8:00 AM 68 °F 42 °F 27% 29.99 in 6 mi SSE 3.5 mph - -  
8:00 AM 68.0 °F 41.0 °F 37% 30.01 in - SSE 3.5 mph - N/A   Clear
9:00 AM 78.8 °F 42.8 °F 28% 30.01 in - SE 11.5 mph - N/A   Clear
10:00 AM 84.2 °F 44.6 °F 25% 30.01 in - SE 15.0 mph - N/A   Clear
11:00 AM 90 °F 38 °F 8% 29.96 in 6 mi SE 17.3 mph - -  
11:00 AM 89.6 °F 37.4 °F 16% 30.01 in - SE 17.3 mph - N/A   Clear
12:00 PM 93.2 °F 37.4 °F 14% 29.98 in - SSE 15.0 mph - N/A   Clear
1:00 PM 95.0 °F 39.2 °F 14% 29.98 in - SSE 12.7 mph - N/A   Clear
2:00 PM 96 °F 37 °F 6% 29.92 in 6 mi SSE 9.2 mph - -  
2:00 PM 96.8 °F 37.4 °F 13% 29.98 in - SSE 9.2 mph - N/A   Clear
3:00 PM 96.8 °F 37.4 °F 13% 29.98 in - SSE 4.6 mph - N/A   Clear
3:30 PM 96.8 °F 37.4 °F 13% 29.98 in - SSE 4.6 mph - N/A   Clear
4:00 PM 95.0 °F 37.4 °F 13% 29.98 in - SSE 6.9 mph - N/A   Clear
5:00 PM 91 °F 47 °F 13% 29.94 in 6 mi SSE 2.3 mph - -  
5:00 PM 91.4 °F 46.4 °F 21% 29.98 in - SSE 2.3 mph - N/A   Clear
6:00 PM 87.8 °F 46.4 °F 24% 30.01 in - East 4.6 mph - N/A   Clear
7:00 PM 86.0 °F 46.4 °F 25% 30.04 in - East 4.6 mph - N/A   Clear
8:00 PM 79 °F 48 °F 24% 30.01 in 6 mi SE 4.6 mph - -  
8:00 PM 78.8 °F 48.2 °F 34% 30.04 in - SE 4.6 mph - N/A   Clear
9:00 PM 77.0 °F 48.2 °F 36% 30.04 in - SE 5.8 mph - N/A   Clear
10:00 PM 75.2 °F 48.2 °F 38% 30.04 in - SE 6.9 mph - N/A   Clear
11:00 PM 73 °F 46 °F 28% 30.02 in 6 mi SE 6.9 mph - -  
11:00 PM 73.4 °F 46.4 °F 38% 30.04 in - SE 6.9 mph - N/A   Clear